Hourly Data Report for September 01, 2017

All times are specified in Local Standard Time (LST). Add 1 hour to adjust for Daylight Saving Time where and when it is observed.

CAPE DORSET A
NUNAVUT

64°13'49.000" N
76°31'30.000" W
48.20 m
2400637
71366
YTE

Download Data

Hourly Data (September 2017)
Hourly Data Report for September 1, 2017
Temp Definition
°C
Dew Point Temp Definition
°C
Rel Hum Definition
%
Wind Dir Definition
10's deg

Wind Spd Definition
km/h
Visibility Definition
km
Stn Press Definition
kPa
Hmdx Definition


Wind Chill Definition


Weather Definition


TIME
00:00 Legend Double Dagger 6.0 4.0 87 26 52 16.1 99.60     LegendNANA
01:00 Legend Double Dagger 5.8 3.8 87 25 52 16.1 99.64     LegendNANA
02:00 Legend Double Dagger 5.7 3.7 87 25 46 16.1 99.64     LegendNANA
03:00 Legend Double Dagger 5.5 3.8 89 25 52 16.1 99.62     LegendNANA
04:00 Legend Double Dagger 5.5 3.7 88 24 46 16.1 99.67     LegendNANA
05:00 Legend Double Dagger 6.2 4.3 88 25 45 16.1 99.73     LegendNANA
06:00 Legend Double Dagger 4.8 3.6 92 24 45 16.1 99.69     LegendNANA
07:00 Legend Double Dagger 4.6 3.7 94 23 37 14.5 99.72     LegendNANA
08:00 Legend Double Dagger 5.0 4.0 93 24 30 14.5 99.72     LegendNANA
09:00 Legend Double Dagger 5.2 4.5 95 24 34 12.9 99.72     Rain
10:00 Legend Double Dagger 5.3 4.4 94 24 37 16.1 99.63     Rain
11:00 Legend Double Dagger 6.1 4.9 92 24 45 16.1 99.64     LegendNANA
12:00 Legend Double Dagger 5.7 4.4 91 24 41 16.1 99.61     LegendNANA
13:00 Legend Double Dagger 6.4 4.7 89 24 39 16.1 99.60     LegendNANA
14:00 Legend Double Dagger 6.3 5.3 93 25 45 12.9 99.59     Rain
15:00 Legend Double Dagger 6.2 5.5 95 25 32 14.5 99.64     Rain
16:00 Legend Double Dagger 6.3 5.6 95 25 35 9.7 99.60     Rain,Fog
17:00 Legend Double Dagger 6.4 5.7 95 25 34 12.9 99.55     LegendNANA
18:00 Legend Double Dagger 6.4 5.8 96 25 24 16.1 99.57     Rain
19:00 Legend Double Dagger 6.3 6.0 98 25 18 9.7 99.56     Rain,Fog
20:00 Legend Double Dagger 6.2 5.9 98 24 17 9.7 99.56     Rain,Fog
21:00 Legend Double Dagger 5.8 5.7 99   0 1.0 99.55     Rain,Fog
22:00 Legend Double Dagger 4.9 4.9 100 11 9 0.6 99.49     Fog
23:00 Legend Double Dagger 5.5 5.5 100 9 9 1.6 99.54     Rain,Fog

Notes on Data Quality.

Legend

  • E = Estimated
  • M = Missing
  • NA = Not Available
  • ‡ = Partner data that is not subject to review by the National Climate Archives
Date modified: